TimeEDT,TemperatureF,Dew PointF,Humidity,Sea Level PressureIn,VisibilityMPH,Wind Direction,Wind SpeedMPH,Gust SpeedMPH,PrecipitationIn,Events,Conditions,WindDirDegrees,DateUTC
12:56 AM,21.9,12.0,66,30.00,10.0,West,9.2,-,N/A,,Overcast,280,2013-03-21 04:56:00
1:56 AM,21.0,12.9,71,30.00,9.0,NW,11.5,-,0.00,,Overcast,310,2013-03-21 05:56:00
2:25 AM,21.2,15.8,80,29.96,2.5,NW,10.4,-,0.00,Snow,Light Snow,310,2013-03-21 06:25:00
2:46 AM,21.2,15.8,80,29.96,9.0,WNW,11.5,-,0.00,,Overcast,300,2013-03-21 06:46:00
2:56 AM,19.9,15.1,81,29.99,5.0,WNW,11.5,-,0.00,Snow,Light Snow,290,2013-03-21 06:56:00
3:56 AM,21.0,12.0,68,29.98,10.0,WNW,6.9,-,0.00,,Overcast,290,2013-03-21 07:56:00
4:56 AM,19.9,10.9,68,29.97,10.0,NW,9.2,-,N/A,,Overcast,310,2013-03-21 08:56:00
5:56 AM,19.9,12.0,71,29.97,6.0,NNW,9.2,-,0.00,Snow,Light Snow,330,2013-03-21 09:56:00
6:12 AM,19.4,12.2,74,29.93,6.0,NNW,10.4,-,0.00,,Haze,330,2013-03-21 10:12:00
6:41 AM,19.4,12.2,74,29.93,2.0,NW,11.5,-,0.00,Snow,Light Snow,310,2013-03-21 10:41:00
6:56 AM,18.0,14.0,84,29.98,6.0,NW,9.2,-,0.00,,Overcast,320,2013-03-21 10:56:00
7:08 AM,17.6,12.2,79,29.93,10.0,NW,9.2,-,N/A,,Overcast,310,2013-03-21 11:08:00
7:56 AM,19.0,12.9,77,29.99,10.0,NW,10.4,-,N/A,,Overcast,310,2013-03-21 11:56:00
8:56 AM,19.0,12.9,77,30.00,10.0,WNW,9.2,-,N/A,,Partly Cloudy,300,2013-03-21 12:56:00
9:56 AM,21.0,12.0,68,30.01,10.0,WNW,12.7,-,N/A,,Scattered Clouds,300,2013-03-21 13:56:00
10:56 AM,24.1,12.0,60,30.02,10.0,NW,10.4,19.6,N/A,,Scattered Clouds,310,2013-03-21 14:56:00
11:56 AM,24.1,10.9,57,30.02,10.0,WNW,10.4,-,N/A,,Mostly Cloudy,290,2013-03-21 15:56:00
12:56 PM,27.0,12.9,56,30.02,10.0,WNW,10.4,-,N/A,,Mostly Cloudy,300,2013-03-21 16:56:00
1:56 PM,26.1,15.1,63,30.03,9.0,WNW,11.5,-,0.00,Snow,Light Snow,290,2013-03-21 17:56:00
2:56 PM,27.0,18.0,69,30.01,7.0,West,12.7,-,0.00,Snow,Light Snow,270,2013-03-21 18:56:00
3:56 PM,28.9,17.1,61,30.01,9.0,West,13.8,-,0.00,,Overcast,270,2013-03-21 19:56:00
4:56 PM,30.0,15.1,54,30.01,10.0,WNW,11.5,-,N/A,,Mostly Cloudy,290,2013-03-21 20:56:00
5:56 PM,30.0,14.0,51,30.01,10.0,West,12.7,-,N/A,,Overcast,270,2013-03-21 21:56:00
6:56 PM,30.0,14.0,51,30.01,10.0,West,10.4,-,N/A,,Overcast,280,2013-03-21 22:56:00
7:56 PM,28.9,15.1,56,30.02,10.0,West,9.2,-,N/A,,Overcast,260,2013-03-21 23:56:00
8:56 PM,24.1,15.1,69,30.03,10.0,WSW,6.9,-,N/A,,Partly Cloudy,250,2013-03-22 00:56:00
9:56 PM,24.1,15.1,69,30.04,10.0,SW,6.9,-,N/A,,Partly Cloudy,230,2013-03-22 01:56:00
10:56 PM,25.0,16.0,69,30.04,10.0,SW,9.2,-,N/A,,Clear,230,2013-03-22 02:56:00
11:56 PM,25.0,16.0,69,30.04,10.0,SW,9.2,-,N/A,,Clear,230,2013-03-22 03:56:00